This demonstration page uses our WeatherBlox Daily Observations layout. Learn more.

Left ArrowRight Arrow

Hourly Observations for November 30, 2020

Temp ( °F °C ) Dew Point ( °F °C ) Humidity (%) Winds ( mph kmh ) Pressure ( in mb ) Visibility ( mi km ) Precip ( " mm )
12:15 am 00:15 Cloudy 48 9 43 6 82 82 SSE 5 7 29.99 1015 10 16.0934 0 0
12:35 am 00:35 Cloudy 48 9 43 6 82 82 S 3 6 29.98 1015 10 16.0934 0 0
12:55 am 00:55 Cloudy 46 8 43 6 87 87 SSE 3 6 29.97 1015 10 16.0934 0 0
1:15 am 01:15 Cloudy 46 8 45 7 93 93 SE 5 7 29.96 1015 7 11.26538 0.01 0.254
1:35 am 01:35 Cloudy 46 8 45 7 93 93 ESE 3 6 29.94 1014 10 16.0934 0.01 0.254
1:55 am 01:55 Cloudy 45 7 45 7 100 100 E 3 6 29.93 1014 10 16.0934 0.01 0.254
2:15 am 02:15 Cloudy 46 8 45 7 93 93 E 3 6 29.91 1013 7 11.26538 0.01 0.254
2:35 am 02:35 Cloudy 46 8 46 8 100 100 ENE 5 7 29.89 1012 1.5 2.41401 0.09 2.286
2:55 am 02:55 Cloudy 45 7 45 7 100 100 NE 3 6 29.87 1012 2 3.21868 0.2 5.08
3:15 am 03:15 Cloudy 45 7 45 7 100 100 Calm 29.86 1011 2 3.21868 0.09 2.286
3:35 am 03:35 Cloudy 45 7 45 7 100 100 NNE 5 7 29.83 1010 2.5 4.02335 0.16 4.064
3:55 am 03:55 Cloudy 45 7 45 7 100 100 NNE 6 9 29.81 1010 1.5 2.41401 0.24 6.096
4:15 am 04:15 Cloudy 45 7 45 7 100 100 NE 7 11 29.79 1009 2.5 4.02335 0.04 1.016
4:35 am 04:35 Cloudy 45 7 45 7 100 100 NNE 7 11 29.77 1008 3 4.82802 0.08 2.032
4:55 am 04:55 Cloudy 45 7 45 7 100 100 NE 6 9 29.75 1007 2 3.21868 0.16 4.064
5:15 am 05:15 Cloudy 45 7 45 7 100 100 NE 7 11 29.73 1007 3 4.82802 0.03 0.762
5:35 am 05:35 Cloudy 45 7 45 7 100 100 ENE 7 11 29.7 1006 3 4.82802 0.07 1.778
5:55 am 05:55 Cloudy 45 7 45 7 100 100 ENE 6 9 29.68 1005 3 4.82802 0.11 2.794
6:15 am 06:15 Cloudy 46 8 46 8 100 100 NE 7 11 29.65 1004 2 3.21868 0.04 1.016
6:35 am 06:35 Cloudy 45 7 45 7 100 100 N 3 6 29.63 1003 1.25 2.011675 0.15 3.81
6:55 am 06:55 Cloudy 45 7 45 7 100 100 NE 12 19 29.59 1002 1.5 2.41401 0.26 6.604
7:15 am 07:15 Cloudy 45 7 45 7 100 100 N 3 6 29.59 1002 4 6.43736 0.03 0.762
7:35 am 07:35 Cloudy 45 7 45 7 100 100 NE 5 7 29.56 1001 1.5 2.41401 0.13 3.302
7:55 am 07:55 Cloudy 45 7 45 7 100 100 Calm 29.54 1000 1.5 2.41401 0.16 4.064
8:15 am 08:15 Cloudy 46 8 46 8 100 100 Calm 29.53 1000 1.75 2.816345 0.02 0.508
8:35 am 08:35 Cloudy 46 8 46 8 100 100 Calm 29.51 999 2 3.21868 0.03 0.762
8:55 am 08:55 Cloudy 45 7 45 7 100 100 Calm 29.5 999 1.5 2.41401 0.04 1.016
9:15 am 09:15 Cloudy 45 7 45 7 100 100 NE 3 6 29.48 998 2.5 4.02335 0 0
9:35 am 09:35 Cloudy 46 8 46 8 100 100 Calm 29.48 998 1.75 2.816345 0 0
9:55 am 09:55 Cloudy 46 8 46 8 100 100 Calm 29.48 998 3 4.82802 0.01 0.254
10:15 am 10:15 Cloudy 46 8 46 8 100 100 Calm 29.47 998 2 3.21868 0.05 1.27
10:35 am 10:35 Cloudy 46 8 46 8 100 100 Calm 29.46 998 1 1.60934 0.13 3.302
10:55 am 10:55 Cloudy 46 8 46 8 100 100 Calm 29.45 997 1.75 2.816345 0.2 5.08
11:15 am 11:15 Cloudy 46 8 46 8 100 100 Calm 29.44 997 2.5 4.02335 0.02 0.508
11:35 am 11:35 Cloudy 50 10 50 10 100 100 S 6 9 29.42 996 7 11.26538 0.03 0.762
11:55 am 11:55 Cloudy 52 11 52 11 100 100 S 8 13 29.39 995 10 16.0934 0.03 0.762
12:15 pm 12:15 Cloudy 54 12 54 12 100 100 S 8 13 29.37 995 10 16.0934 0 0
12:35 pm 12:35 Cloudy 54 12 54 12 100 100 S 7 11 29.37 995 10 16.0934 0 0
12:55 pm 12:55 Cloudy 54 12 54 12 100 100 SSW 5 7 29.36 994 10 16.0934 0 0
1:15 pm 13:15 Cloudy 54 12 54 12 100 100 W 8 13 29.36 994 10 16.0934 0 0
1:35 pm 13:35 Cloudy 52 11 52 11 100 100 WNW 8 13 29.34 994 10 16.0934 0 0
1:55 pm 13:55 Cloudy 52 11 52 11 100 100 Calm 29.34 994 10 16.0934 0 0
2:15 pm 14:15 Cloudy 52 11 52 11 100 100 Calm 29.34 994 10 16.0934 0 0
2:35 pm 14:35 Cloudy 50 10 50 10 100 100 Calm 29.35 994 10 16.0934 0 0
2:55 pm 14:55 Cloudy 50 10 50 10 100 100 NNW 6 9 29.37 994 10 16.0934 0 0
3:15 pm 15:15 Cloudy 50 10 50 10 100 100 N 3 6 29.37 994 10 16.0934 0 0
3:35 pm 15:35 Cloudy 50 10 50 10 100 100 NNW 6 9 29.37 994 10 16.0934 0 0
3:55 pm 15:55 Cloudy 50 10 50 10 100 100 NNW 10 17 29.38 995 10 16.0934 0 0
4:15 pm 16:15 Mostly Cloudy 50 10 48 9 94 94 NNW 9 15 29.4 995 10 16.0934 0 0
4:35 pm 16:35 Mostly Cloudy 48 9 46 8 94 94 NW 7 11 29.41 996 10 16.0934 0 0
4:55 pm 16:55 Mostly Cloudy 48 9 46 8 94 94 NW 6 9 29.41 996 10 16.0934 0 0
5:15 pm 17:15 Cloudy 48 9 46 8 94 94 NW 6 9 29.42 996 10 16.0934 0 0
5:35 pm 17:35 Cloudy 50 10 46 8 88 88 NW 6 9 29.42 996 10 16.0934 0 0
5:55 pm 17:55 Cloudy 48 9 46 8 94 94 NNW 5 7 29.43 997 10 16.0934 0 0
6:15 pm 18:15 Cloudy 48 9 46 8 94 94 NNW 9 15 29.44 997 10 16.0934 0 0
6:35 pm 18:35 Cloudy 46 8 43 6 87 87 NW 13 20 29.45 997 10 16.0934 0 0
6:55 pm 18:55 Cloudy 46 8 39 4 76 76 NW 16 26 29.46 998 10 16.0934 0 0
7:15 pm 19:15 Cloudy 46 8 37 3 71 71 NW 12 19 29.48 998 10 16.0934 0 0
7:35 pm 19:35 Cloudy 46 8 37 3 71 71 WNW 13 20 29.48 998 10 16.0934 0 0
7:55 pm 19:55 Cloudy 46 8 37 3 71 71 NW 9 15 29.5 999 10 16.0934 0 0
8:15 pm 20:15 Cloudy 46 8 37 3 71 71 NW 5 7 29.5 999 10 16.0934 0 0
8:35 pm 20:35 Cloudy 46 8 37 3 71 71 WNW 8 13 29.51 999 10 16.0934 0 0
8:55 pm 20:55 Cloudy 46 8 37 3 71 71 NW 7 11 29.52 1000 10 16.0934 0 0
9:15 pm 21:15 Cloudy 45 7 36 2 71 71 NNW 7 11 29.53 1000 10 16.0934 0 0
9:35 pm 21:35 Cloudy 45 7 36 2 71 71 NW 9 15 29.54 1000 10 16.0934 0 0
9:55 pm 21:55 Cloudy 45 7 36 2 71 71 WNW 7 11 29.54 1000 10 16.0934 0 0
10:15 pm 22:15 Cloudy 45 7 36 2 71 71 NW 5 7 29.54 1000 10 16.0934 0 0
10:35 pm 22:35 Cloudy 45 7 36 2 71 71 Calm 29.54 1000 10 16.0934 0 0
10:55 pm 22:55 Cloudy 45 7 36 2 71 71 WNW 3 6 29.55 1001 10 16.0934 0 0
11:15 pm 23:15 Cloudy 43 6 36 2 76 76 WNW 6 9 29.55 1001 10 16.0934 0 0
11:35 pm 23:35 Cloudy 43 6 36 2 76 76 WNW 6 9 29.55 1001 10 16.0934 0 0
11:55 pm 23:55 Cloudy 43 6 36 2 76 76 NW 7 11 29.55 1001 10 16.0934 0 0

Powered by AerisWeather